SCP
0 0 0 0 0 0 0 0 0 0 0 0 -0 -0 0 0 0 0 0 0 0 0 0 0 0 0 0 0 0 0 0 0 0 0 0 0 0 0 0 0 0 1 0 0
0 0 0 0 0 0 0 0 0 0 0 0 0 -0 -0 0 0 0 0 0 0 0 0 0 0 0 0 0 0 0 0 0 0 0 0 0 0 0 0 0 0 0 0 0
0 0 0 0 0 0 0 0 0 0 0 0 -0 -0 -0 0 0 0 0 0 0 0 0 0 0 0 0 0 0 0 0 0 0 0 0 0 0 0 0 0 0 0 0 0
0 0 0 0 0 0 0 0 0 0 0 0 0 -0 -0 0 0 0 0 0 0 0 0 0 0 0 0 0 0 0 0 0 0 0 0 0 0 0 -0 0 0 -0 -0 0
0 0 0 0 0 0 0 0 0 0 0 0 0 0 -0 0 0 0 0 0 0 0 0 0 0 0 0 0 0 0 0 0 0 0 0 0 0 -0 -0 0 0 0 0 0
0 0 0 0 0 0 0 0 0 0 0 0 0 0 -0 0 0 0 0 0 0 0 0 0 0 0 0 0 0 0 0 0 0 0 0 0 0 0 0 0 0 0 0 0
0 0 0 0 0 0 0 0 0 0 0 0 0 0 0 0 0 0 0 0 0 0 0 0 0 0 0 0 0 0 0 0 0 0 0 0 0 0 0 0 0 0 0 0
0 0 0 0 0 0 0 0 0 0 0 0 0 0 0 0 0 0 0 0 0 0 0 0 0 0 0 0 0 0 0 0 0 0 0 0 0 0 0 0 0 0 0 0
0 0 0 0 0 0 0 0 0 0 0 0 0 0 0 0 0 0 0 0 0 0 0 0 0 0 0 0 0 0 0 0 0 0 0 0 0 0 0 0 0 0 0 0
0 0 0 0 0 0 0 0 0 0 0 0 0 0 0 0 0 0 0 0 0 0 0 0 0 0 0 0 0 0 0 0 0 0 0 0 0 0 0 0 0 0 0 0
0 0 0 0 0 0 0 0 0 0 0 0 0 0 0 0 0 0 0 0 0 0 0 0 0 0 0 0 0 0 0 0 0 0 0 0 0 0 0 0 0 0 0 0
0 0 0 0 0 0 0 0 0 0 0 0 0 0 0 -0 0 0 0 0 0 0 0 0 0 0 0 0 0 0 0 0 0 0 0 0 0 0 0 0 0 0 0 0
0 0 0 0 0 0 0 0 0 0 0 0 0 0 0 -0 0 0 0 0 0 0 0 0 0 0 0 0 0 0 0 0 0 0 0 0 0 0 0 0 0 -0 -0 0
0 0 0 0 0 0 0 0 0 0 0 0 0 0 0 0 -0 -0 0 0 0 0 0 0 0 0 0 0 0 0 0 0 0 0 0 0 -0 -0 0 -0 -0 0 0 0
0 0 -0 -0 -0 -0 0 0 0 0 0 0 0 0 0 0 0 -0 -0 0 0 0 0 0 0 0 0 0 0 -0 0 0 -0 -0 0 0 0 -0 0 0 -0 -0 -0 0
0 0 0 -0 -0 -0 -0 0 0 0 0 0 0 0 0 0 0 0 -0 0 0 0 0 0 0 0 0 0 0 -0 -0 -0 -0 -0 -0 -0 0 -0 -0 -0 -0 -0 -0 0
0 0 0 0 -0 -0 -0 -0 0 0 0 0 0 0 0 0 0 0 0 0 0 0 0 0 0 0 0 0 0 -0 -0 -0 -0 -0 -0 -0 -0 0 0 -0 -0 0 0 0
0 0 0 0 0 -0 -0 0 -0 0 -0 -0 0 0 0 0 0 0 0 0 0 0 0 0 0 0 0 0 0 -0 -0 -0 -0 -0 -0 -0 -0 -0 -0 -0 -0 -0 0 -0
0 0 0 0 0 0 0 0 -0 -0 -0 -0 0 0 0 0 0 0 0 0 0 0 0 0 0 0 0 0 0 -0 0 -0 -0 -0 -0 -0 -0 -0 -0 -0 -0 -0 -0 -0
0 0 0 0 0 0 0 0 0 0 -0 0 0 0 0 0 0 0 0 0 0 0 0 0 0 0 0 0 0 -0 -0 0 -0 -0 -0 -0 -0 -0 -0 -0 -0 -0 -0 -0
0 0 0 0 0 0 0 0 0 0 0 0 0 0 0 0 0 0 0 0 0 0 0 0 0 0 0 0 0 0 -0 0 -0 -0 0 0 -0 -0 -0 -0 -0 -0 -0 -0
0 0 0 0 0 0 0 0 0 0 0 0 0 0 0 0 0 0 0 0 0 0 0 0 0 0 0 0 0 0 -0 0 -0 -0 0 0 -0 -0 0 -0 0 -0 -0 -0
0 0 0 0 0 0 0 0 0 -0 0 -0 -0 0 0 0 0 0 0 0 0 0 0 0 0 0 0 0 0 0 0 0 -0 0 0 0 -0 -0 -0 -0 -0 -0 -0 -0
0 0 0 0 0 0 0 0 -0 -0 -0 0 -0 0 0 0 0 0 0 0 0 0 0 0 0 0 0 0 0 0 0 0 -0 -0 0 0 -0 -0 0 0 0 -0 -0 0
0 0 0 0 0 0 0 0 0 0 -0 -0 -0 -0 0 0 0 0 0 0 0 0 0 0 0 0 0 0 0 0 0 -0 -0 -0 -0 -0 0 -0 0 0 0 -0 0 0
0 0 0 0 0 0 0 0 0 -0 -0 -0 -0 -0 0 0 -0 -0 0 0 0 0 0 0 0 0 0 0 0 0 0 0 -0 0 0 0 0 0 0 0 0 -0 -0 -0
Wind_Speed_500mb
7 5 23 18 15 11 7 7 10 7 15 8 16 20 26 40 24 36 51 48 46 44 41 56 55 50 46 42 41 41 39 39 46 50 50 53 56 49 43 40 36 39 45 52
1 24 15 13 12 11 9 7 16 13 15 8 17 36 25 21 28 51 59 66 64 49 47 53 52 45 38 33 32 34 35 38 37 34 36 43 39 39 35 35 32 38 42 40
19 11 15 24 11 13 10 12 8 15 10 10 13 18 11 11 18 40 39 43 50 61 60 56 51 37 28 25 26 26 26 26 25 24 25 31 33 34 36 36 37 36 31 31
17 24 6 9 13 17 13 17 21 16 4 8 5 14 10 15 17 12 18 24 34 42 52 52 42 30 22 19 17 16 17 13 15 22 27 31 33 36 33 31 28 25 36 37
15 12 27 32 19 14 17 12 14 7 9 2 5 6 12 7 14 16 11 15 16 28 44 46 33 23 16 13 8 8 5 3 7 12 17 20 28 32 27 23 28 25 34 35
11 10 12 13 20 27 2 6 8 7 5 4 14 14 9 7 7 10 6 13 18 33 41 36 28 20 15 9 6 2 2 4 3 1 5 7 15 16 14 14 21 27 26 25
10 18 7 9 12 5 10 8 2 2 1 11 1 2 18 13 13 10 9 22 32 42 42 36 29 23 16 10 10 9 10 10 6 4 4 8 14 16 14 13 15 18 26 29
14 13 31 19 37 16 14 15 9 12 8 8 5 11 12 8 7 18 22 27 44 43 39 33 27 23 18 12 10 12 9 6 3 4 4 6 9 10 11 13 15 15 17 24
13 14 8 20 34 22 13 13 14 10 2 3 7 13 19 5 7 10 12 43 52 48 41 35 29 22 17 13 12 10 11 6 4 1 2 5 8 10 10 9 11 16 16 20
11 12 12 3 12 3 23 16 6 1 7 9 8 6 15 10 15 8 10 27 47 49 42 37 30 24 17 11 10 11 10 10 9 7 6 12 15 15 14 16 22 27 25 29
9 5 4 12 14 22 8 10 1 6 9 11 1 10 10 6 15 15 14 32 52 55 48 40 32 24 18 12 8 11 10 9 8 10 12 14 14 15 15 18 22 30 32 19
3 6 7 26 7 7 12 14 19 9 9 6 7 12 4 6 13 7 13 27 41 53 48 41 34 28 21 17 12 10 9 8 6 7 8 10 11 13 14 10 13 21 2 8
5 3 7 6 3 8 11 11 15 5 3 21 13 9 3 10 7 8 12 19 33 48 49 43 39 34 28 22 16 12 10 7 5 6 4 3 5 3 5 5 11 15 9 3
31 6 14 13 6 11 10 21 22 9 3 7 13 17 12 5 4 5 14 23 32 45 50 50 48 40 32 27 21 16 14 10 7 7 7 6 6 0 1 5 7 10 13 14
9 14 9 14 19 13 17 27 25 21 11 8 9 18 25 16 10 12 16 25 38 51 57 58 53 48 41 34 29 24 20 14 13 11 10 9 10 10 5 3 7 3 8 13
7 20 10 6 17 21 23 31 33 30 24 23 28 24 25 34 10 12 21 30 42 53 62 66 61 54 51 42 37 30 25 20 17 15 15 18 18 18 16 12 17 16 16 16
13 10 6 8 6 10 17 29 31 26 17 11 22 15 25 25 13 21 27 37 47 54 61 70 70 63 58 49 43 37 30 26 24 20 22 23 21 17 17 17 20 22 24 23
15 7 6 7 2 7 11 16 9 20 16 19 13 18 24 32 45 49 43 44 49 56 59 66 71 66 62 51 46 42 37 33 31 28 28 24 21 19 22 22 23 27 29 30
35 14 4 8 9 13 18 4 6 11 11 27 18 8 20 46 37 27 28 36 54 64 57 57 67 68 65 57 54 50 45 41 37 35 31 24 22 24 21 21 25 29 30 31
11 17 13 8 9 10 11 6 15 8 8 14 20 18 19 46 3 6 52 50 45 33 43 48 57 66 65 62 59 57 53 48 45 42 34 27 27 24 22 22 25 28 27 30
9 4 16 7 6 11 23 27 19 3 4 8 17 24 23 11 17 51 47 54 51 22 29 39 49 66 67 65 66 64 58 53 45 44 38 33 31 26 25 25 26 29 29 30
19 14 10 11 12 17 30 8 13 5 26 16 32 36 33 47 53 58 52 50 55 25 27 43 52 66 69 67 69 69 63 54 50 47 42 38 35 34 28 27 31 30 30 30
9 14 12 14 13 19 17 17 25 21 37 49 44 53 47 51 55 60 59 51 50 33 27 43 57 68 70 70 72 72 66 61 56 51 47 44 41 35 32 32 33 34 30 27
8 9 6 8 14 17 28 30 42 43 51 41 40 43 57 56 54 59 59 57 49 44 31 46 63 73 76 72 74 67 71 65 60 56 54 50 45 42 38 35 30 28 28 25
9 15 13 9 14 11 41 51 53 40 53 60 48 43 55 66 60 57 62 62 47 42 30 50 68 75 78 74 78 74 75 70 65 60 59 55 48 44 41 35 28 24 21 16
15 12 10 12 17 21 33 46 60 52 71 60 58 56 57 53 59 58 65 46 40 39 31 52 67 76 78 75 81 79 77 75 73 69 65 60 52 48 44 42 40 36 29 25
Wind_Direction_500mb
190 169 224 187 191 186 147 202 254 257 267 304 264 267 269 270 258 248 251 249 234 234 237 221 223 228 235 241 248 254 255 254 254 251 246 242 239 247 252 252 264 258 253 243
55 234 224 192 193 203 203 246 274 282 275 188 281 283 265 247 249 247 243 240 233 230 221 214 218 224 231 241 250 255 260 265 261 253 248 244 244 243 244 260 255 259 253 241
203 219 212 190 182 194 217 213 220 236 325 281 307 285 268 285 253 258 249 248 247 239 224 211 212 213 221 235 251 263 274 272 249 237 232 232 233 237 240 249 254 245 237 220
232 220 188 156 215 192 252 210 229 246 94 250 1 291 254 274 300 262 255 246 241 228 217 205 200 201 216 237 257 279 288 271 232 235 241 238 239 237 239 248 241 237 232 213
232 185 212 226 203 158 227 172 194 207 188 358 282 288 270 339 305 297 259 247 220 208 196 186 186 193 209 226 247 287 288 226 232 267 250 232 230 236 243 249 228 220 233 240
230 213 181 217 227 207 140 135 55 51 105 257 224 194 286 266 229 301 297 224 205 179 173 175 176 181 188 189 192 135 104 151 33 153 165 196 226 223 237 227 225 225 228 238
234 231 238 191 169 113 167 120 310 309 358 230 86 185 253 278 249 235 231 202 178 172 170 172 175 171 178 168 167 143 112 94 86 137 210 218 235 240 242 229 238 249 253 238
177 265 201 200 216 185 182 169 172 203 204 245 66 234 250 227 299 280 254 202 175 175 177 175 172 170 177 169 153 160 128 96 113 131 188 214 225 230 226 231 244 247 261 259
192 240 225 223 215 184 188 201 195 104 56 39 226 285 299 62 327 345 177 173 179 180 180 176 173 174 183 187 188 157 141 158 241 205 203 252 233 231 233 220 255 272 272 258
311 273 193 154 115 171 210 156 139 6 188 235 273 261 239 306 300 247 192 177 179 180 181 180 179 174 179 177 188 150 162 195 222 236 255 264 261 260 266 289 309 305 282 263
359 307 284 142 179 184 145 200 74 160 156 181 212 254 207 232 288 269 212 195 184 182 185 183 180 177 185 182 175 153 165 189 220 236 257 276 281 281 275 308 305 303 304 249
89 313 277 240 331 146 177 181 209 206 234 238 177 248 115 302 309 292 199 199 193 189 186 186 188 188 183 187 193 182 167 186 206 234 244 259 259 271 277 281 343 337 152 187
348 250 288 196 64 19 61 27 17 318 48 212 183 253 100 49 18 94 159 191 198 192 189 191 196 198 198 191 207 202 185 180 190 217 241 233 195 200 221 342 21 58 63 93
310 254 192 273 10 8 325 352 357 349 225 278 227 252 272 177 201 158 166 195 202 206 201 199 200 202 200 202 208 204 185 173 169 185 184 156 151 136 93 74 40 52 65 90
240 247 225 239 251 195 255 294 299 284 284 283 325 309 291 265 253 206 236 198 202 210 210 210 206 203 200 202 199 204 184 177 170 185 162 146 153 153 140 91 148 136 128 114
237 253 236 267 254 236 241 240 247 251 261 260 251 264 270 286 255 232 235 211 218 221 220 219 215 207 202 200 196 202 188 181 175 187 153 136 126 112 110 101 93 90 115 138
296 180 143 246 297 282 249 237 229 246 212 215 263 250 286 287 234 232 240 228 237 240 232 226 221 212 206 200 196 198 192 183 176 176 158 141 125 123 119 110 101 107 106 114
239 193 149 213 329 257 260 304 292 255 207 204 266 264 269 272 274 261 259 264 266 257 246 234 225 214 207 202 193 194 194 188 181 174 161 150 145 136 123 117 116 111 106 107
205 210 158 163 198 287 311 317 276 185 260 222 228 288 336 322 276 269 304 313 291 285 270 249 231 216 205 201 191 190 194 191 182 180 172 161 156 148 139 136 130 129 127 123
118 214 186 140 171 229 231 243 357 331 236 3 30 20 354 327 22 289 341 342 319 294 270 245 224 213 202 200 191 190 193 192 189 185 177 166 161 157 154 156 149 145 141 139
172 169 202 190 210 279 261 276 340 214 186 337 354 335 337 303 301 311 323 336 333 287 263 235 221 212 201 199 191 189 193 191 187 186 180 172 166 167 172 164 157 150 145 140
179 176 199 202 219 246 234 284 182 205 322 315 319 321 313 301 306 316 318 323 336 299 250 230 212 206 200 198 193 189 191 188 187 185 180 176 175 178 175 171 159 155 154 149
210 181 177 169 199 233 224 218 287 320 314 310 315 315 310 301 312 315 315 315 326 314 252 228 215 203 198 197 199 190 186 188 186 184 183 181 182 175 176 173 169 163 161 157
220 153 165 133 231 231 230 278 283 298 301 307 313 312 311 308 314 314 316 313 308 323 253 224 212 206 195 195 198 195 185 187 187 186 185 183 184 178 177 174 173 168 163 161
194 147 164 240 264 285 271 268 273 289 296 298 298 299 301 301 302 313 309 313 302 317 258 226 217 210 199 193 195 194 189 186 186 187 185 186 185 184 176 171 167 160 155 146
193 172 167 228 183 207 249 261 274 281 285 288 297 300 300 298 299 310 301 303 303 303 266 225 218 213 202 194 195 195 192 190 185 185 187 188 187 185 179 174 168 163 162 159
Wind_Speed_850mb
7 5 23 18 15 11 7 7 10 7 15 8 16 20 26 40 24 36 51 48 46 44 41 56 55 50 46 42 41 41 39 39 46 50 50 53 56 49 43 40 36 39 45 52
1 24 15 13 12 11 9 7 16 13 15 8 17 36 25 21 28 51 59 66 64 49 47 53 52 45 38 33 32 34 35 38 37 34 36 43 39 39 35 35 32 38 42 40
19 11 15 24 11 13 10 12 8 15 10 10 13 18 11 11 18 40 39 43 50 61 60 56 51 37 28 25 26 26 26 26 25 24 25 31 33 34 36 36 37 36 31 31
17 24 6 9 13 17 13 17 21 16 4 8 5 14 10 15 17 12 18 24 34 42 52 52 42 30 22 19 17 16 17 13 15 22 27 31 33 36 33 31 28 25 36 37
15 12 27 32 19 14 17 12 14 7 9 2 5 6 12 7 14 16 11 15 16 28 44 46 33 23 16 13 8 8 5 3 7 12 17 20 28 32 27 23 28 25 34 35
11 10 12 13 20 27 2 6 8 7 5 4 14 14 9 7 7 10 6 13 18 33 41 36 28 20 15 9 6 2 2 4 3 1 5 7 15 16 14 14 21 27 26 25
10 18 7 9 12 5 10 8 2 2 1 11 1 2 18 13 13 10 9 22 32 42 42 36 29 23 16 10 10 9 10 10 6 4 4 8 14 16 14 13 15 18 26 29
14 13 31 19 37 16 14 15 9 12 8 8 5 11 12 8 7 18 22 27 44 43 39 33 27 23 18 12 10 12 9 6 3 4 4 6 9 10 11 13 15 15 17 24
13 14 8 20 34 22 13 13 14 10 2 3 7 13 19 5 7 10 12 43 52 48 41 35 29 22 17 13 12 10 11 6 4 1 2 5 8 10 10 9 11 16 16 20
11 12 12 3 12 3 23 16 6 1 7 9 8 6 15 10 15 8 10 27 47 49 42 37 30 24 17 11 10 11 10 10 9 7 6 12 15 15 14 16 22 27 25 29
9 5 4 12 14 22 8 10 1 6 9 11 1 10 10 6 15 15 14 32 52 55 48 40 32 24 18 12 8 11 10 9 8 10 12 14 14 15 15 18 22 30 32 19
3 6 7 26 7 7 12 14 19 9 9 6 7 12 4 6 13 7 13 27 41 53 48 41 34 28 21 17 12 10 9 8 6 7 8 10 11 13 14 10 13 21 2 8
5 3 7 6 3 8 11 11 15 5 3 21 13 9 3 10 7 8 12 19 33 48 49 43 39 34 28 22 16 12 10 7 5 6 4 3 5 3 5 5 11 15 9 3
31 6 14 13 6 11 10 21 22 9 3 7 13 17 12 5 4 5 14 23 32 45 50 50 48 40 32 27 21 16 14 10 7 7 7 6 6 0 1 5 7 10 13 14
9 14 9 14 19 13 17 27 25 21 11 8 9 18 25 16 10 12 16 25 38 51 57 58 53 48 41 34 29 24 20 14 13 11 10 9 10 10 5 3 7 3 8 13
7 20 10 6 17 21 23 31 33 30 24 23 28 24 25 34 10 12 21 30 42 53 62 66 61 54 51 42 37 30 25 20 17 15 15 18 18 18 16 12 17 16 16 16
13 10 6 8 6 10 17 29 31 26 17 11 22 15 25 25 13 21 27 37 47 54 61 70 70 63 58 49 43 37 30 26 24 20 22 23 21 17 17 17 20 22 24 23
15 7 6 7 2 7 11 16 9 20 16 19 13 18 24 32 45 49 43 44 49 56 59 66 71 66 62 51 46 42 37 33 31 28 28 24 21 19 22 22 23 27 29 30
35 14 4 8 9 13 18 4 6 11 11 27 18 8 20 46 37 27 28 36 54 64 57 57 67 68 65 57 54 50 45 41 37 35 31 24 22 24 21 21 25 29 30 31
11 17 13 8 9 10 11 6 15 8 8 14 20 18 19 46 3 6 52 50 45 33 43 48 57 66 65 62 59 57 53 48 45 42 34 27 27 24 22 22 25 28 27 30
9 4 16 7 6 11 23 27 19 3 4 8 17 24 23 11 17 51 47 54 51 22 29 39 49 66 67 65 66 64 58 53 45 44 38 33 31 26 25 25 26 29 29 30
19 14 10 11 12 17 30 8 13 5 26 16 32 36 33 47 53 58 52 50 55 25 27 43 52 66 69 67 69 69 63 54 50 47 42 38 35 34 28 27 31 30 30 30
9 14 12 14 13 19 17 17 25 21 37 49 44 53 47 51 55 60 59 51 50 33 27 43 57 68 70 70 72 72 66 61 56 51 47 44 41 35 32 32 33 34 30 27
8 9 6 8 14 17 28 30 42 43 51 41 40 43 57 56 54 59 59 57 49 44 31 46 63 73 76 72 74 67 71 65 60 56 54 50 45 42 38 35 30 28 28 25
9 15 13 9 14 11 41 51 53 40 53 60 48 43 55 66 60 57 62 62 47 42 30 50 68 75 78 74 78 74 75 70 65 60 59 55 48 44 41 35 28 24 21 16
15 12 10 12 17 21 33 46 60 52 71 60 58 56 57 53 59 58 65 46 40 39 31 52 67 76 78 75 81 79 77 75 73 69 65 60 52 48 44 42 40 36 29 25
Wind_Direction_850mb
190 169 224 187 191 186 147 202 254 257 267 304 264 267 269 270 258 248 251 249 234 234 237 221 223 228 235 241 248 254 255 254 254 251 246 242 239 247 252 252 264 258 253 243
55 234 224 192 193 203 203 246 274 282 275 188 281 283 265 247 249 247 243 240 233 230 221 214 218 224 231 241 250 255 260 265 261 253 248 244 244 243 244 260 255 259 253 241
203 219 212 190 182 194 217 213 220 236 325 281 307 285 268 285 253 258 249 248 247 239 224 211 212 213 221 235 251 263 274 272 249 237 232 232 233 237 240 249 254 245 237 220
232 220 188 156 215 192 252 210 229 246 94 250 1 291 254 274 300 262 255 246 241 228 217 205 200 201 216 237 257 279 288 271 232 235 241 238 239 237 239 248 241 237 232 213
232 185 212 226 203 158 227 172 194 207 188 358 282 288 270 339 305 297 259 247 220 208 196 186 186 193 209 226 247 287 288 226 232 267 250 232 230 236 243 249 228 220 233 240
230 213 181 217 227 207 140 135 55 51 105 257 224 194 286 266 229 301 297 224 205 179 173 175 176 181 188 189 192 135 104 151 33 153 165 196 226 223 237 227 225 225 228 238
234 231 238 191 169 113 167 120 310 309 358 230 86 185 253 278 249 235 231 202 178 172 170 172 175 171 178 168 167 143 112 94 86 137 210 218 235 240 242 229 238 249 253 238
177 265 201 200 216 185 182 169 172 203 204 245 66 234 250 227 299 280 254 202 175 175 177 175 172 170 177 169 153 160 128 96 113 131 188 214 225 230 226 231 244 247 261 259
192 240 225 223 215 184 188 201 195 104 56 39 226 285 299 62 327 345 177 173 179 180 180 176 173 174 183 187 188 157 141 158 241 205 203 252 233 231 233 220 255 272 272 258
311 273 193 154 115 171 210 156 139 6 188 235 273 261 239 306 300 247 192 177 179 180 181 180 179 174 179 177 188 150 162 195 222 236 255 264 261 260 266 289 309 305 282 263
359 307 284 142 179 184 145 200 74 160 156 181 212 254 207 232 288 269 212 195 184 182 185 183 180 177 185 182 175 153 165 189 220 236 257 276 281 281 275 308 305 303 304 249
89 313 277 240 331 146 177 181 209 206 234 238 177 248 115 302 309 292 199 199 193 189 186 186 188 188 183 187 193 182 167 186 206 234 244 259 259 271 277 281 343 337 152 187
348 250 288 196 64 19 61 27 17 318 48 212 183 253 100 49 18 94 159 191 198 192 189 191 196 198 198 191 207 202 185 180 190 217 241 233 195 200 221 342 21 58 63 93
310 254 192 273 10 8 325 352 357 349 225 278 227 252 272 177 201 158 166 195 202 206 201 199 200 202 200 202 208 204 185 173 169 185 184 156 151 136 93 74 40 52 65 90
240 247 225 239 251 195 255 294 299 284 284 283 325 309 291 265 253 206 236 198 202 210 210 210 206 203 200 202 199 204 184 177 170 185 162 146 153 153 140 91 148 136 128 114
237 253 236 267 254 236 241 240 247 251 261 260 251 264 270 286 255 232 235 211 218 221 220 219 215 207 202 200 196 202 188 181 175 187 153 136 126 112 110 101 93 90 115 138
296 180 143 246 297 282 249 237 229 246 212 215 263 250 286 287 234 232 240 228 237 240 232 226 221 212 206 200 196 198 192 183 176 176 158 141 125 123 119 110 101 107 106 114
239 193 149 213 329 257 260 304 292 255 207 204 266 264 269 272 274 261 259 264 266 257 246 234 225 214 207 202 193 194 194 188 181 174 161 150 145 136 123 117 116 111 106 107
205 210 158 163 198 287 311 317 276 185 260 222 228 288 336 322 276 269 304 313 291 285 270 249 231 216 205 201 191 190 194 191 182 180 172 161 156 148 139 136 130 129 127 123
118 214 186 140 171 229 231 243 357 331 236 3 30 20 354 327 22 289 341 342 319 294 270 245 224 213 202 200 191 190 193 192 189 185 177 166 161 157 154 156 149 145 141 139
172 169 202 190 210 279 261 276 340 214 186 337 354 335 337 303 301 311 323 336 333 287 263 235 221 212 201 199 191 189 193 191 187 186 180 172 166 167 172 164 157 150 145 140
179 176 199 202 219 246 234 284 182 205 322 315 319 321 313 301 306 316 318 323 336 299 250 230 212 206 200 198 193 189 191 188 187 185 180 176 175 178 175 171 159 155 154 149
210 181 177 169 199 233 224 218 287 320 314 310 315 315 310 301 312 315 315 315 326 314 252 228 215 203 198 197 199 190 186 188 186 184 183 181 182 175 176 173 169 163 161 157
220 153 165 133 231 231 230 278 283 298 301 307 313 312 311 308 314 314 316 313 308 323 253 224 212 206 195 195 198 195 185 187 187 186 185 183 184 178 177 174 173 168 163 161
194 147 164 240 264 285 271 268 273 289 296 298 298 299 301 301 302 313 309 313 302 317 258 226 217 210 199 193 195 194 189 186 186 187 185 186 185 184 176 171 167 160 155 146
193 172 167 228 183 207 249 261 274 281 285 288 297 300 300 298 299 310 301 303 303 303 266 225 218 213 202 194 195 195 192 190 185 185 187 188 187 185 179 174 168 163 162 159